Weather History for KAHQ - May, 2013

Change the Weather History Date:

Monday, May 13, 2013

  Actual Average Record
Temperature  
Mean Temperature 65 °F -  
Max Temperature 86 °F 73 °F 90 °F (1991)
Min Temperature 44 °F 46 °F 33 °F (1966)
Growing Degree Days 15 (Base 50)    
Moisture  
Dew Point 42 °F    
Average Humidity 47    
Maximum Humidity 81    
Minimum Humidity 18    
Precipitation  
Precipitation 0.00 in - - ()
Sea Level Pressure  
Sea Level Pressure 29.98 in    
Wind  
Wind Speed 10 mph (South)    
Max Wind Speed 21 mph    
Max Gust Speed 29 mph    
Visibility 10 miles    
Events      
Averages and records for this station are not official NWS values.
T = Trace of Precipitation, MM = Missing Value Source: NWS Daily Summary

Daily Weather History Graph

Daily Weather History Graph

Search for Another Location

Airport or City:

Trip Planner

Search our weather history database for the weather conditions in past years. The results will help you decide how hot, cold, wet, or windy it might be!

Date:

Astronomy

May. 13, 2013 Rise Set
Actual Time 6:09 AM CDT 8:36 PM CDT
Civil Twilight 5:38 AM CDT 9:07 PM CDT
Nautical Twilight 4:59 AM CDT 9:46 PM CDT
Astronomical Twilight 4:16 AM CDT 10:30 PM CDT
Moon 8:56 AM CDT (5/13) 11:46 PM CDT (5/13)
Length of Visible Light 15h 29m
Length of Day
14h 26m
Waxing Crescent, 12% of the Moon is Illuminated
May 13
Waxing Crescent
May 17
First Quarter
May 24
Full
May 31
Last Quarter
Jun 8
New

Hourly Weather History & Observations

Time (CDT) Temp. Windchill Dew Point Humidity Pressure Visibility Wind Dir Wind Speed Gust Speed Precip Events Conditions
12:15 AM 47.3 °F - 33.3 °F 58% 30.11 in 10.0 mi SE 6.9 mph - N/A   Clear
12:35 AM 46.4 °F 42.4 °F 33.8 °F 62% 30.10 in 10.0 mi SE 8.1 mph - N/A   Clear
12:55 AM 46.0 °F 41.9 °F 33.8 °F 62% 30.11 in 10.0 mi SE 8.1 mph - N/A   Clear
1:15 AM 46.6 °F - 33.1 °F 59% 30.10 in 10.0 mi SE 8.1 mph - N/A   Clear
1:35 AM 46.4 °F 42.9 °F 34.3 °F 63% 30.10 in 10.0 mi SSE 6.9 mph - N/A   Clear
1:55 AM 47.1 °F - 35.6 °F 64% 30.09 in 10.0 mi SE 6.9 mph - N/A   Clear
2:15 AM 47.5 °F - 35.6 °F 63% 30.10 in 10.0 mi SE 4.6 mph - N/A   Clear
2:35 AM 47.3 °F - 35.4 °F 63% 30.09 in 10.0 mi SSE 4.6 mph - N/A   Clear
2:55 AM 47.3 °F - 36.0 °F 65% 30.09 in 10.0 mi Calm Calm - N/A   Clear
3:15 AM 46.6 °F - 36.3 °F 67% 30.09 in 10.0 mi SSE 5.8 mph - N/A   Clear
3:35 AM 46.4 °F 45.2 °F 37.2 °F 70% 30.09 in 10.0 mi SSE 3.5 mph - N/A   Clear
3:55 AM 46.4 °F 43.5 °F 37.6 °F 71% 30.08 in 10.0 mi SSE 5.8 mph - N/A   Clear
4:15 AM 46.6 °F - 38.3 °F 73% 30.08 in 10.0 mi Calm Calm - N/A   Clear
4:35 AM 46.2 °F 43.3 °F 38.3 °F 74% 30.07 in 10.0 mi SSE 5.8 mph - N/A   Clear
4:55 AM 45.7 °F 42.7 °F 39.0 °F 78% 30.07 in 10.0 mi SE 5.8 mph - N/A   Clear
5:15 AM 45.1 °F 41.4 °F 38.5 °F 77% 30.07 in 10.0 mi SSE 6.9 mph - N/A   Clear
5:35 AM 44.4 °F 40.5 °F 38.3 °F 79% 30.06 in 10.0 mi SSE 6.9 mph - N/A   Clear
5:55 AM 45.0 °F 41.8 °F 38.5 °F 78% 30.06 in 10.0 mi SE 5.8 mph - N/A   Clear
6:15 AM 44.6 °F 42.2 °F 38.8 °F 80% 30.07 in 10.0 mi SE 4.6 mph - N/A   Clear
6:55 AM 45.9 °F 43.6 °F 39.4 °F 78% 30.08 in 10.0 mi SSE 4.6 mph - N/A   Clear
7:15 AM 46.4 °F 44.3 °F 40.8 °F 81% 30.08 in 10.0 mi SSE 4.6 mph - N/A   Clear
7:35 AM 50.2 °F - 41.9 °F 73% 30.07 in 10.0 mi SE 5.8 mph - N/A   Clear
7:55 AM 52.7 °F - 42.3 °F 68% 30.07 in 10.0 mi SSE 9.2 mph - N/A   Clear
8:15 AM 54.5 °F - 42.8 °F 65% 30.08 in 10.0 mi South 9.2 mph - N/A   Clear
8:35 AM 57.7 °F - 42.6 °F 57% 30.07 in 10.0 mi South 13.8 mph - N/A   Clear
8:55 AM 59.9 °F - 43.2 °F 54% 30.06 in 10.0 mi South 11.5 mph - N/A   Clear
9:15 AM 62.4 °F - 42.1 °F 47% 30.06 in 10.0 mi South 17.3 mph - N/A   Clear
9:35 AM 64.4 °F - 41.9 °F 44% 30.05 in 10.0 mi South 17.3 mph - N/A   Clear
9:55 AM 65.3 °F - 42.6 °F 44% 30.05 in 10.0 mi South 16.1 mph - N/A   Clear
10:15 AM 66.4 °F - 42.8 °F 42% 30.04 in 10.0 mi South 13.8 mph - N/A   Clear
10:35 AM 68.0 °F - 42.8 °F 40% 30.04 in 10.0 mi South 11.5 mph - N/A   Clear
10:55 AM 69.3 °F - 42.3 °F 38% 30.04 in 10.0 mi South 11.5 mph - N/A   Clear
11:15 AM 70.7 °F - 43.0 °F 37% 30.02 in 10.0 mi South 13.8 mph 19.6 mph N/A   Clear
11:35 AM 72.3 °F - 43.0 °F 35% 30.02 in 10.0 mi South 12.7 mph - N/A   Clear
11:55 AM 73.8 °F - 43.9 °F 34% 30.01 in 10.0 mi South 13.8 mph 18.4 mph N/A   Clear
12:15 PM 75.0 °F - 43.9 °F 33% 30.00 in 10.0 mi South 15.0 mph - N/A   Clear
12:35 PM 77.0 °F - 43.3 °F 30% 29.99 in 10.0 mi South 18.4 mph 21.9 mph N/A   Clear
12:55 PM 77.4 °F - 43.9 °F 30% 29.98 in 10.0 mi South 13.8 mph 24.2 mph N/A   Clear
1:15 PM 79.5 °F - 42.6 °F 27% 29.97 in 10.0 mi SSW 17.3 mph 23.0 mph N/A   Clear
1:35 PM 79.5 °F - 41.9 °F 26% 29.96 in 10.0 mi SSW 16.1 mph 21.9 mph N/A   Clear
1:55 PM 80.6 °F - 41.5 °F 25% 29.96 in 10.0 mi South 16.1 mph 27.6 mph N/A   Clear
2:15 PM 81.7 °F - 42.6 °F 25% 29.95 in 10.0 mi South 20.7 mph 25.3 mph N/A   Clear
2:35 PM 83.3 °F - 42.3 °F 23% 29.94 in 10.0 mi South 19.6 mph 27.6 mph N/A   Clear
3:35 PM 85.1 °F - 38.3 °F 19% 29.92 in 10.0 mi South 20.7 mph 26.5 mph N/A   Clear
3:55 PM 85.3 °F - 37.2 °F 18% 29.91 in 10.0 mi SSW 19.6 mph 25.3 mph N/A   Clear
4:15 PM 85.3 °F - 37.2 °F 18% 29.90 in 10.0 mi SSW 19.6 mph 25.3 mph N/A   Clear
4:35 PM 86.0 °F - 37.8 °F 18% 29.90 in 10.0 mi SSW 19.6 mph 28.8 mph N/A   Clear
4:55 PM 86.2 °F - 37.9 °F 18% 29.88 in 10.0 mi SSW 20.7 mph 26.5 mph N/A   Clear
5:15 PM 86.7 °F - 39.6 °F 19% 29.88 in 10.0 mi SW 17.3 mph 21.9 mph N/A   Clear
5:35 PM 86.2 °F - 39.4 °F 19% 29.88 in 10.0 mi SSW 20.7 mph 26.5 mph N/A   Clear
5:55 PM 86.0 °F - 40.6 °F 20% 29.87 in 10.0 mi SSW 17.3 mph 26.5 mph N/A   Clear
6:35 PM 85.1 °F - 43.5 °F 23% 29.85 in 10.0 mi SSW 17.3 mph 26.5 mph N/A   Clear
7:15 PM 82.9 °F - 45.5 °F 27% 29.84 in 10.0 mi SSW 15.0 mph 24.2 mph N/A   Clear
7:35 PM 81.7 °F - 46.0 °F 29% 29.84 in 10.0 mi SSW 16.1 mph - N/A   Clear
7:55 PM 80.8 °F - 45.9 °F 29% 29.84 in 10.0 mi SSW 15.0 mph 20.7 mph N/A   Clear
8:15 PM 79.5 °F - 46.4 °F 31% 29.84 in 10.0 mi SSW 13.8 mph 19.6 mph N/A   Clear
8:35 PM 78.4 °F - 46.4 °F 32% 29.84 in 10.0 mi SSW 12.7 mph - N/A   Clear
8:55 PM 77.9 °F - 46.8 °F 33% 29.84 in 10.0 mi SSW 13.8 mph - N/A   Clear
9:15 PM 77.2 °F - 48.2 °F 36% 29.85 in 10.0 mi SSW 13.8 mph - N/A   Clear
9:35 PM 76.1 °F - 49.1 °F 39% 29.85 in 10.0 mi SSW 11.5 mph - N/A   Clear
9:55 PM 75.7 °F - 49.8 °F 40% 29.85 in 10.0 mi SSW 11.5 mph 17.3 mph N/A   Clear
10:15 PM 74.3 °F - 50.9 °F 44% 29.85 in 10.0 mi SW 11.5 mph - N/A   Clear
10:35 PM 72.9 °F - 51.8 °F 47% 29.85 in 10.0 mi SW 10.4 mph - N/A   Clear
10:55 PM 71.6 °F - 52.2 °F 50% 29.85 in 10.0 mi SW 9.2 mph - N/A   Clear
11:15 PM 72.5 °F - 52.7 °F 50% 29.85 in 10.0 mi SW 13.8 mph 18.4 mph N/A   Clear
11:35 PM 70.5 °F - 53.2 °F 54% 29.85 in 10.0 mi SW 10.4 mph - N/A   Clear
11:55 PM 71.1 °F - 53.6 °F 54% 29.85 in 10.0 mi SW 11.5 mph - N/A   Clear